Time,TemperatureF,DewpointF,PressureIn,WindDirection,WindDirectionDegrees,WindSpeedMPH,WindSpeedGustMPH,Humidity,HourlyPrecipIn,Conditions,Clouds,dailyrainin,SoftwareType,DateUTC
2013-04-23 00:01:00,47.8,-99.9,30.32,SE,135,0.0,0.0,-999,0.00,,,-99.99,perl,2013-04-23 04:01:00,
2013-04-23 00:04:00,47.7,-99.9,30.32,SE,136,0.0,0.0,-999,0.00,,,-99.99,perl,2013-04-23 04:04:00,
2013-04-23 00:05:00,47.7,-99.9,30.32,SE,136,0.0,0.0,-999,0.00,,,-99.99,perl,2013-04-23 04:05:00,
2013-04-23 00:06:00,47.7,-99.9,30.32,SE,136,0.0,0.0,-999,0.00,,,-99.99,perl,2013-04-23 04:06:00,
2013-04-23 00:07:00,47.7,-99.9,30.32,SE,136,0.0,0.0,-999,0.00,,,-99.99,perl,2013-04-23 04:07:00,
2013-04-23 00:12:00,47.5,-99.9,30.32,SE,136,0.0,0.0,-999,0.00,,,-99.99,perl,2013-04-23 04:12:00,
2013-04-23 00:17:00,47.3,-99.9,30.32,SE,137,0.0,0.0,-999,0.00,,,-99.99,perl,2013-04-23 04:17:00,
2013-04-23 00:22:00,46.9,-99.9,30.32,SE,136,0.0,0.0,-999,0.00,,,-99.99,perl,2013-04-23 04:22:00,
2013-04-23 00:28:00,46.8,-99.9,30.32,SE,139,0.0,0.0,-999,0.00,,,-99.99,perl,2013-04-23 04:28:00,
2013-04-23 00:34:00,46.8,-99.9,30.32,SE,141,0.0,0.0,-999,0.00,,,-99.99,perl,2013-04-23 04:34:00,
2013-04-23 00:39:00,47.5,-99.9,30.32,SSE,164,0.0,5.4,-999,0.00,,,-99.99,perl,2013-04-23 04:39:00,
2013-04-23 00:44:00,47.8,-99.9,30.32,SSE,157,3.6,5.4,-999,0.00,,,-99.99,perl,2013-04-23 04:44:00,
2013-04-23 00:49:00,47.8,-99.9,30.32,SSE,159,3.6,4.0,-999,0.00,,,-99.99,perl,2013-04-23 04:49:00,
2013-04-23 00:54:00,47.7,-99.9,30.32,SSE,153,3.6,4.0,-999,0.00,,,-99.99,perl,2013-04-23 04:54:00,
2013-04-23 00:59:00,47.8,-99.9,30.32,SSE,151,3.8,5.4,-999,0.00,,,-99.99,perl,2013-04-23 04:59:00,
2013-04-23 01:05:00,48.0,-99.9,30.32,SSE,151,4.0,4.0,-999,0.00,,,-99.99,perl,2013-04-23 05:05:00,
2013-04-23 01:10:00,47.8,-99.9,30.32,SSE,152,2.7,5.4,-999,0.00,,,-99.99,perl,2013-04-23 05:10:00,
2013-04-23 01:15:00,47.8,-99.9,30.35,SE,144,4.4,5.4,-999,0.00,,,-99.99,perl,2013-04-23 05:15:00,
2013-04-23 01:20:00,47.8,-99.9,30.35,SSE,163,4.4,7.6,-999,0.00,,,-99.99,perl,2013-04-23 05:20:00,
2013-04-23 01:25:00,48.2,-99.9,30.35,SSE,154,5.4,5.8,-999,0.00,,,-99.99,perl,2013-04-23 05:25:00,
2013-04-23 01:30:00,48.0,-99.9,30.32,SSE,156,4.5,5.4,-999,0.00,,,-99.99,perl,2013-04-23 05:30:00,
2013-04-23 01:35:00,47.8,-99.9,30.32,SSE,152,4.0,5.8,-999,0.00,,,-99.99,perl,2013-04-23 05:35:00,
2013-04-23 01:40:00,47.5,-99.9,30.32,SSE,153,3.9,4.0,-999,0.00,,,-99.99,perl,2013-04-23 05:40:00,
2013-04-23 01:46:00,47.5,-99.9,30.35,SSE,163,4.0,6.3,-999,0.00,,,-99.99,perl,2013-04-23 05:46:00,
2013-04-23 01:51:00,47.3,-99.9,30.35,SSE,161,4.0,5.4,-999,0.00,,,-99.99,perl,2013-04-23 05:51:00,
2013-04-23 01:56:00,47.3,-99.9,30.35,SSE,168,4.0,4.9,-999,0.00,,,-99.99,perl,2013-04-23 05:56:00,
2013-04-23 02:01:00,47.1,-99.9,30.32,SSE,165,0.0,4.9,-999,0.00,,,-99.99,perl,2013-04-23 06:01:00,
2013-04-23 02:06:00,47.1,-99.9,30.32,SSE,158,3.6,6.7,-999,0.00,,,-99.99,perl,2013-04-23 06:06:00,
2013-04-23 02:11:00,46.9,-99.9,30.32,South,169,3.6,4.5,-999,0.00,,,-99.99,perl,2013-04-23 06:11:00,
2013-04-23 02:16:00,46.9,-99.9,30.32,South,170,3.3,4.0,-999,0.00,,,-99.99,perl,2013-04-23 06:16:00,
2013-04-23 02:21:00,46.8,-99.9,30.32,SSE,154,3.6,5.8,-999,0.00,,,-99.99,perl,2013-04-23 06:21:00,
2013-04-23 02:26:00,46.9,-99.9,30.32,SSE,160,4.0,4.9,-999,0.00,,,-99.99,perl,2013-04-23 06:26:00,
2013-04-23 02:31:00,46.6,-99.9,30.32,SSE,161,3.6,4.0,-999,0.00,,,-99.99,perl,2013-04-23 06:31:00,
2013-04-23 02:36:00,46.4,-99.9,30.32,South,169,2.9,4.0,-999,0.00,,,-99.99,perl,2013-04-23 06:36:00,
2013-04-23 02:41:00,46.2,-99.9,30.32,SSE,165,3.6,4.0,-999,0.00,,,-99.99,perl,2013-04-23 06:41:00,
2013-04-23 02:46:00,46.2,-99.9,30.32,SSE,157,3.6,4.9,-999,0.00,,,-99.99,perl,2013-04-23 06:46:00,
2013-04-23 02:51:00,46.0,-99.9,30.32,SSE,163,3.6,4.5,-999,0.00,,,-99.99,perl,2013-04-23 06:51:00,
2013-04-23 02:56:00,45.9,-99.9,30.32,SSE,156,3.6,4.0,-999,0.00,,,-99.99,perl,2013-04-23 06:56:00,
2013-04-23 03:01:00,45.9,-99.9,30.32,SSE,148,3.9,4.0,-999,0.00,,,-99.99,perl,2013-04-23 07:01:00,
2013-04-23 03:06:00,45.5,-99.9,30.32,SSE,166,3.6,4.0,-999,0.00,,,-99.99,perl,2013-04-23 07:06:00,
2013-04-23 03:11:00,45.3,-99.9,30.32,SSE,161,4.1,4.1,-999,0.00,,,-99.99,perl,2013-04-23 07:11:00,
2013-04-23 03:16:00,45.0,-99.9,30.32,SE,146,4.0,4.0,-999,0.00,,,-99.99,perl,2013-04-23 07:16:00,
2013-04-23 03:21:00,44.8,-99.9,30.32,SSE,158,4.0,4.9,-999,0.00,,,-99.99,perl,2013-04-23 07:21:00,
2013-04-23 03:26:00,45.0,-99.9,30.32,SSE,153,4.0,5.4,-999,0.00,,,-99.99,perl,2013-04-23 07:26:00,
2013-04-23 03:31:00,44.6,-99.9,30.32,SSE,164,2.7,4.0,-999,0.00,,,-99.99,perl,2013-04-23 07:31:00,
2013-04-23 03:36:00,44.6,-99.9,30.32,South,169,2.2,0.0,-999,0.00,,,-99.99,perl,2013-04-23 07:36:00,
2013-04-23 03:41:00,44.2,-99.9,30.32,SSE,164,4.0,4.0,-999,0.00,,,-99.99,perl,2013-04-23 07:41:00,
2013-04-23 03:46:00,44.2,-99.9,30.32,SSE,152,4.1,5.4,-999,0.00,,,-99.99,perl,2013-04-23 07:46:00,
2013-04-23 03:51:00,44.1,-99.9,30.32,SSE,165,4.0,4.0,-999,0.00,,,-99.99,perl,2013-04-23 07:51:00,
2013-04-23 03:56:00,43.7,-99.9,30.32,SSE,156,3.4,4.0,-999,0.00,,,-99.99,perl,2013-04-23 07:56:00,
2013-04-23 04:01:00,43.5,-99.9,30.32,SSE,159,3.5,3.6,-999,0.00,,,-99.99,perl,2013-04-23 08:01:00,
2013-04-23 04:06:00,43.3,-99.9,30.32,SSE,154,3.6,3.6,-999,0.00,,,-99.99,perl,2013-04-23 08:06:00,
2013-04-23 04:11:00,43.3,-99.9,30.32,South,169,3.5,4.0,-999,0.00,,,-99.99,perl,2013-04-23 08:11:00,
2013-04-23 04:16:00,43.7,-99.9,30.32,SSE,154,3.6,5.8,-999,0.00,,,-99.99,perl,2013-04-23 08:16:00,
2013-04-23 04:22:00,43.7,-99.9,30.32,SE,143,4.2,5.8,-999,0.00,,,-99.99,perl,2013-04-23 08:22:00,
2013-04-23 04:27:00,43.5,-99.9,30.32,SSE,168,3.6,5.4,-999,0.00,,,-99.99,perl,2013-04-23 08:27:00,
2013-04-23 04:32:00,43.3,-99.9,30.32,SSE,156,3.7,4.5,-999,0.00,,,-99.99,perl,2013-04-23 08:32:00,
2013-04-23 04:37:00,43.2,-99.9,30.32,SSE,157,4.0,4.0,-999,0.00,,,-99.99,perl,2013-04-23 08:37:00,
2013-04-23 04:44:00,43.0,-99.9,30.32,SSE,148,3.6,5.4,-999,0.00,,,-99.99,perl,2013-04-23 08:44:00,
2013-04-23 04:49:00,42.8,-99.9,30.32,SSE,156,3.7,4.9,-999,0.00,,,-99.99,perl,2013-04-23 08:49:00,
2013-04-23 04:55:00,42.4,-99.9,30.32,SSE,152,4.0,5.4,-999,0.00,,,-99.99,perl,2013-04-23 08:55:00,
2013-04-23 05:01:00,42.3,-99.9,30.32,SSE,152,3.6,4.0,-999,0.00,,,-99.99,perl,2013-04-23 09:01:00,
2013-04-23 05:06:00,42.1,-99.9,30.32,SSE,154,3.6,5.4,-999,0.00,,,-99.99,perl,2013-04-23 09:06:00,
2013-04-23 05:11:00,41.9,-99.9,30.32,SSE,158,3.5,4.9,-999,0.00,,,-99.99,perl,2013-04-23 09:11:00,
2013-04-23 05:16:00,41.7,-99.9,30.32,SSE,160,3.1,4.0,-999,0.00,,,-99.99,perl,2013-04-23 09:16:00,
2013-04-23 05:21:00,41.5,-99.9,30.32,SSE,158,3.2,4.0,-999,0.00,,,-99.99,perl,2013-04-23 09:21:00,
2013-04-23 05:26:00,41.5,-99.9,30.32,SSE,153,4.5,5.8,-999,0.00,,,-99.99,perl,2013-04-23 09:26:00,
2013-04-23 05:32:00,41.7,-99.9,30.29,SSE,154,4.6,5.4,-999,0.00,,,-99.99,perl,2013-04-23 09:32:00,
2013-04-23 05:37:00,41.5,-99.9,30.29,SSE,160,4.0,4.0,-999,0.00,,,-99.99,perl,2013-04-23 09:37:00,
2013-04-23 05:42:00,41.5,-99.9,30.29,SSE,157,3.7,4.0,-999,0.00,,,-99.99,perl,2013-04-23 09:42:00,
2013-04-23 05:47:00,41.5,-99.9,30.29,SSE,164,4.5,5.4,-999,0.00,,,-99.99,perl,2013-04-23 09:47:00,
2013-04-23 05:52:00,41.2,-99.9,30.29,SSE,153,4.0,4.9,-999,0.00,,,-99.99,perl,2013-04-23 09:52:00,
2013-04-23 05:57:00,41.0,-99.9,30.29,SSE,162,3.6,5.4,-999,0.00,,,-99.99,perl,2013-04-23 09:57:00,
2013-04-23 06:02:00,41.2,-99.9,30.29,SSE,151,3.9,4.9,-999,0.00,,,-99.99,perl,2013-04-23 10:02:00,
2013-04-23 06:07:00,41.2,-99.9,30.29,SE,144,4.3,5.4,-999,0.00,,,-99.99,perl,2013-04-23 10:07:00,
2013-04-23 06:12:00,41.0,-99.9,30.29,SSE,164,4.5,5.8,-999,0.00,,,-99.99,perl,2013-04-23 10:12:00,
2013-04-23 06:17:00,41.0,-99.9,30.29,SSE,156,3.7,4.9,-999,0.00,,,-99.99,perl,2013-04-23 10:17:00,
2013-04-23 06:22:00,40.8,-99.9,30.29,SSE,153,3.1,4.0,-999,0.00,,,-99.99,perl,2013-04-23 10:22:00,
2013-04-23 06:27:00,40.6,-99.9,30.29,South,170,3.0,4.0,-999,0.00,,,-99.99,perl,2013-04-23 10:27:00,
2013-04-23 06:32:00,40.5,-99.9,30.29,SSE,159,2.7,4.0,-999,0.00,,,-99.99,perl,2013-04-23 10:32:00,
2013-04-23 06:38:00,40.5,-99.9,30.29,SSE,157,3.1,4.0,-999,0.00,,,-99.99,perl,2013-04-23 10:38:00,
2013-04-23 06:43:00,40.3,-99.9,30.29,SSE,158,3.1,3.6,-999,0.00,,,-99.99,perl,2013-04-23 10:43:00,
2013-04-23 06:48:00,40.3,-99.9,30.29,SSE,155,3.2,3.6,-999,0.00,,,-99.99,perl,2013-04-23 10:48:00,
2013-04-23 06:53:00,40.3,-99.9,30.29,SSE,150,2.7,3.6,-999,0.00,,,-99.99,perl,2013-04-23 10:53:00,
2013-04-23 06:58:00,40.5,-99.9,30.29,SE,142,3.1,3.1,-999,0.00,,,-99.99,perl,2013-04-23 10:58:00,
2013-04-23 07:03:00,40.5,-99.9,30.29,SE,143,3.1,4.0,-999,0.00,,,-99.99,perl,2013-04-23 11:03:00,
2013-04-23 07:08:00,40.6,-99.9,30.29,SSE,152,3.6,4.0,-999,0.00,,,-99.99,perl,2013-04-23 11:08:00,
2013-04-23 07:15:00,41.0,-99.9,30.29,SE,138,3.1,4.0,-999,0.00,,,-99.99,perl,2013-04-23 11:15:00,
2013-04-23 07:20:00,41.2,-99.9,30.29,SSE,147,3.0,3.6,-999,0.00,,,-99.99,perl,2013-04-23 11:20:00,
2013-04-23 07:25:00,41.5,-99.9,30.29,SE,139,2.2,2.7,-999,0.00,,,-99.99,perl,2013-04-23 11:25:00,
2013-04-23 07:30:00,41.7,-99.9,30.29,SSE,155,2.8,4.0,-999,0.00,,,-99.99,perl,2013-04-23 11:30:00,
2013-04-23 07:35:00,42.1,-99.9,30.29,SE,143,2.7,5.4,-999,0.00,,,-99.99,perl,2013-04-23 11:35:00,
2013-04-23 07:40:00,42.3,-99.9,30.29,SSE,153,3.1,5.4,-999,0.00,,,-99.99,perl,2013-04-23 11:40:00,
2013-04-23 07:45:00,42.4,-99.9,30.29,SE,135,4.3,4.9,-999,0.00,,,-99.99,perl,2013-04-23 11:45:00,
2013-04-23 07:52:00,43.0,-99.9,30.29,SE,145,3.8,4.9,-999,0.00,,,-99.99,perl,2013-04-23 11:52:00,
2013-04-23 07:57:00,43.3,-99.9,30.29,ESE,114,2.7,6.3,-999,0.00,,,-99.99,perl,2013-04-23 11:57:00,
2013-04-23 08:02:00,43.7,-99.9,30.29,SSE,154,2.2,3.6,-999,0.00,,,-99.99,perl,2013-04-23 12:02:00,
2013-04-23 08:07:00,43.9,-99.9,30.29,SSE,157,4.0,5.4,-999,0.00,,,-99.99,perl,2013-04-23 12:07:00,
2013-04-23 08:12:00,44.2,-99.9,30.29,SSE,152,3.2,4.0,-999,0.00,,,-99.99,perl,2013-04-23 12:12:00,
2013-04-23 08:17:00,44.6,-99.9,30.29,SSE,159,4.0,6.3,-999,0.00,,,-99.99,perl,2013-04-23 12:17:00,
2013-04-23 08:22:00,44.8,-99.9,30.29,SSE,151,3.5,4.0,-999,0.00,,,-99.99,perl,2013-04-23 12:22:00,
2013-04-23 08:27:00,45.3,-99.9,30.29,South,171,3.7,4.5,-999,0.00,,,-99.99,perl,2013-04-23 12:27:00,
2013-04-23 08:32:00,45.5,-99.9,30.29,SE,135,3.1,5.4,-999,0.00,,,-99.99,perl,2013-04-23 12:32:00,
2013-04-23 08:37:00,45.3,-99.9,30.29,SE,139,4.9,8.3,-999,0.00,,,-99.99,perl,2013-04-23 12:37:00,
2013-04-23 08:42:00,45.5,-99.9,30.29,SSE,162,2.2,3.1,-999,0.00,,,-99.99,perl,2013-04-23 12:42:00,
2013-04-23 08:47:00,45.9,-99.9,30.26,SSE,164,4.5,5.8,-999,0.00,,,-99.99,perl,2013-04-23 12:47:00,
2013-04-23 08:52:00,46.2,-99.9,30.26,SSE,154,4.0,6.3,-999,0.00,,,-99.99,perl,2013-04-23 12:52:00,
2013-04-23 08:57:00,46.0,-99.9,30.26,SE,125,4.8,5.4,-999,0.00,,,-99.99,perl,2013-04-23 12:57:00,
2013-04-23 09:02:00,46.2,-99.9,30.26,SE,139,3.8,5.8,-999,0.00,,,-99.99,perl,2013-04-23 13:02:00,
2013-04-23 09:07:00,46.8,-99.9,30.26,SSE,163,3.1,3.6,-999,0.00,,,-99.99,perl,2013-04-23 13:07:00,
2013-04-23 09:12:00,46.8,-99.9,30.26,SSE,158,4.0,5.4,-999,0.00,,,-99.99,perl,2013-04-23 13:12:00,
2013-04-23 09:17:00,47.3,-99.9,30.26,SSE,161,3.6,4.0,-999,0.00,,,-99.99,perl,2013-04-23 13:17:00,
2013-04-23 09:22:00,47.7,-99.9,30.26,SSE,164,3.4,6.3,-999,0.00,,,-99.99,perl,2013-04-23 13:22:00,
2013-04-23 09:27:00,48.2,-99.9,30.26,SE,130,3.1,4.9,-999,0.00,,,-99.99,perl,2013-04-23 13:27:00,
2013-04-23 09:32:00,48.4,-99.9,30.23,ESE,123,3.0,4.0,-999,0.00,,,-99.99,perl,2013-04-23 13:32:00,
2013-04-23 09:37:00,48.6,-99.9,30.23,SE,142,4.3,6.3,-999,0.00,,,-99.99,perl,2013-04-23 13:37:00,
2013-04-23 09:44:00,49.1,-99.9,30.23,South,172,3.1,4.0,-999,0.00,,,-99.99,perl,2013-04-23 13:44:00,
2013-04-23 09:49:00,49.6,-99.9,30.23,East,98,2.2,4.0,-999,0.00,,,-99.99,perl,2013-04-23 13:49:00,
2013-04-23 09:54:00,50.0,-99.9,30.23,SSE,152,2.5,5.4,-999,0.00,,,-99.99,perl,2013-04-23 13:54:00,
2013-04-23 09:59:00,50.2,-99.9,30.23,SE,134,2.2,3.6,-999,0.00,,,-99.99,perl,2013-04-23 13:59:00,
2013-04-23 10:05:00,49.8,-99.9,30.23,South,183,3.0,4.9,-999,0.00,,,-99.99,perl,2013-04-23 14:05:00,
2013-04-23 10:10:00,49.6,-99.9,30.23,ESE,109,4.9,4.9,-999,0.00,,,-99.99,perl,2013-04-23 14:10:00,
2013-04-23 10:15:00,49.5,-99.9,30.23,SE,132,5.3,5.8,-999,0.00,,,-99.99,perl,2013-04-23 14:15:00,
2013-04-23 10:20:00,50.2,-99.9,30.23,South,169,2.7,3.1,-999,0.00,,,-99.99,perl,2013-04-23 14:20:00,
2013-04-23 10:25:00,50.2,-99.9,30.23,SSE,156,4.9,5.4,-999,0.00,,,-99.99,perl,2013-04-23 14:25:00,
2013-04-23 10:30:00,50.5,-99.9,30.23,SSW,202,3.6,3.6,-999,0.00,,,-99.99,perl,2013-04-23 14:30:00,
2013-04-23 10:35:00,50.7,-99.9,30.23,SSE,168,3.2,4.0,-999,0.00,,,-99.99,perl,2013-04-23 14:35:00,
2013-04-23 10:40:00,51.3,-99.9,30.23,ESE,123,3.0,5.4,-999,0.00,,,-99.99,perl,2013-04-23 14:40:00,
2013-04-23 10:45:00,51.8,-99.9,30.23,ESE,122,0.0,5.4,-999,0.00,,,-99.99,perl,2013-04-23 14:45:00,
2013-04-23 10:50:00,52.0,-99.9,30.23,SSW,196,3.2,4.0,-999,0.00,,,-99.99,perl,2013-04-23 14:50:00,
2013-04-23 10:55:00,52.0,-99.9,30.23,SE,128,0.0,6.3,-999,0.00,,,-99.99,perl,2013-04-23 14:55:00,
2013-04-23 11:00:00,51.8,-99.9,30.23,SSE,166,3.9,4.0,-999,0.00,,,-99.99,perl,2013-04-23 15:00:00,
2013-04-23 11:05:00,52.3,-99.9,30.23,SW,224,2.7,0.0,-999,0.00,,,-99.99,perl,2013-04-23 15:05:00,
2013-04-23 11:10:00,52.9,-99.9,30.23,SSW,204,2.5,0.0,-999,0.00,,,-99.99,perl,2013-04-23 15:10:00,
2013-04-23 11:15:00,52.7,-99.9,30.20,SSE,150,3.5,6.3,-999,0.00,,,-99.99,perl,2013-04-23 15:15:00,
2013-04-23 11:20:00,53.2,-99.9,30.20,SW,218,0.0,3.1,-999,0.00,,,-99.99,perl,2013-04-23 15:20:00,
2013-04-23 11:25:00,53.1,-99.9,30.20,SSE,152,4.4,5.8,-999,0.00,,,-99.99,perl,2013-04-23 15:25:00,
2013-04-23 11:30:00,53.2,-99.9,30.20,SW,225,0.0,0.0,-999,0.00,,,-99.99,perl,2013-04-23 15:30:00,
2013-04-23 11:35:00,53.8,-99.9,30.20,SSE,147,3.0,4.0,-999,0.00,,,-99.99,perl,2013-04-23 15:35:00,
2013-04-23 11:40:00,54.0,-99.9,30.20,SSE,162,0.0,3.6,-999,0.00,,,-99.99,perl,2013-04-23 15:40:00,
2013-04-23 11:45:00,54.5,-99.9,30.20,SE,127,2.7,3.6,-999,0.00,,,-99.99,perl,2013-04-23 15:45:00,
2013-04-23 11:50:00,54.9,-99.9,30.20,SSE,148,2.7,4.0,-999,0.00,,,-99.99,perl,2013-04-23 15:50:00,
2013-04-23 11:55:00,55.2,-99.9,30.20,SE,137,2.2,5.8,-999,0.00,,,-99.99,perl,2013-04-23 15:55:00,
2013-04-23 12:01:00,54.1,-99.9,30.17,SSE,147,4.5,5.8,-999,0.00,,,-99.99,perl,2013-04-23 16:01:00,
2013-04-23 12:06:00,54.7,-99.9,30.17,SE,142,4.1,7.2,-999,0.00,,,-99.99,perl,2013-04-23 16:06:00,
2013-04-23 12:11:00,55.6,-99.9,30.17,SSE,157,3.6,5.4,-999,0.00,,,-99.99,perl,2013-04-23 16:11:00,
2013-04-23 12:16:00,55.2,-99.9,30.17,SSE,159,3.1,3.1,-999,0.00,,,-99.99,perl,2013-04-23 16:16:00,
2013-04-23 12:21:00,55.8,-99.9,30.17,SE,146,4.8,5.8,-999,0.00,,,-99.99,perl,2013-04-23 16:21:00,
2013-04-23 12:26:00,55.6,-99.9,30.17,SSE,153,5.8,7.2,-999,0.00,,,-99.99,perl,2013-04-23 16:26:00,
2013-04-23 12:31:00,55.8,-99.9,30.17,SE,137,0.0,0.0,-999,0.00,,,-99.99,perl,2013-04-23 16:31:00,
2013-04-23 12:36:00,55.9,-99.9,30.17,SE,140,5.8,6.3,-999,0.00,,,-99.99,perl,2013-04-23 16:36:00,
2013-04-23 12:41:00,56.8,-99.9,30.17,SSW,204,3.7,5.4,-999,0.00,,,-99.99,perl,2013-04-23 16:41:00,
2013-04-23 12:46:00,57.2,-99.9,30.17,WSW,252,3.5,4.9,-999,0.00,,,-99.99,perl,2013-04-23 16:46:00,
2013-04-23 12:51:00,57.4,-99.9,30.17,SE,138,2.7,5.8,-999,0.00,,,-99.99,perl,2013-04-23 16:51:00,
2013-04-23 12:56:00,57.2,-99.9,30.17,SE,138,3.8,5.4,-999,0.00,,,-99.99,perl,2013-04-23 16:56:00,
2013-04-23 13:01:00,57.4,-99.9,30.17,West,260,4.0,5.8,-999,0.00,,,-99.99,perl,2013-04-23 17:01:00,
2013-04-23 13:06:00,57.6,-99.9,30.17,East,97,4.8,6.3,-999,0.00,,,-99.99,perl,2013-04-23 17:06:00,
2013-04-23 13:11:00,57.2,-99.9,30.17,East,86,3.6,5.8,-999,0.00,,,-99.99,perl,2013-04-23 17:11:00,
2013-04-23 13:16:00,57.0,-99.9,30.17,SSE,151,3.9,5.8,-999,0.00,,,-99.99,perl,2013-04-23 17:16:00,
2013-04-23 13:21:00,57.6,-99.9,30.17,NW,316,0.7,0.0,-999,0.00,,,-99.99,perl,2013-04-23 17:21:00,
2013-04-23 13:26:00,58.6,-99.9,30.17,SW,227,4.9,6.3,-999,0.00,,,-99.99,perl,2013-04-23 17:26:00,
2013-04-23 13:31:00,58.5,-99.9,30.17,WSW,257,3.5,6.3,-999,0.00,,,-99.99,perl,2013-04-23 17:31:00,
2013-04-23 13:36:00,58.5,-99.9,30.17,ENE,62,0.0,4.0,-999,0.00,,,-99.99,perl,2013-04-23 17:36:00,
2013-04-23 13:41:00,59.5,-99.9,30.17,SSE,167,3.2,4.0,-999,0.00,,,-99.99,perl,2013-04-23 17:41:00,
2013-04-23 13:46:00,59.7,-99.9,30.17,WSW,245,4.5,6.3,-999,0.00,,,-99.99,perl,2013-04-23 17:46:00,
2013-04-23 13:51:00,59.5,-99.9,30.17,SW,225,0.7,4.0,-999,0.00,,,-99.99,perl,2013-04-23 17:51:00,
2013-04-23 13:57:00,59.7,-99.9,30.17,South,172,0.0,3.1,-999,0.00,,,-99.99,perl,2013-04-23 17:57:00,
2013-04-23 14:02:00,60.4,-99.9,30.14,SE,135,0.8,3.1,-999,0.00,,,-99.99,perl,2013-04-23 18:02:00,
2013-04-23 14:07:00,60.8,-99.9,30.14,SSE,156,2.2,3.6,-999,0.00,,,-99.99,perl,2013-04-23 18:07:00,
2013-04-23 14:12:00,61.0,-99.9,30.14,ESE,105,3.2,5.4,-999,0.00,,,-99.99,perl,2013-04-23 18:12:00,
2013-04-23 14:17:00,61.0,-99.9,30.14,SSE,167,3.1,5.4,-999,0.00,,,-99.99,perl,2013-04-23 18:17:00,
2013-04-23 14:22:00,61.0,-99.9,30.14,SE,141,3.6,3.6,-999,0.00,,,-99.99,perl,2013-04-23 18:22:00,
2013-04-23 14:27:00,60.8,-99.9,30.14,ESE,117,0.0,3.6,-999,0.00,,,-99.99,perl,2013-04-23 18:27:00,
2013-04-23 14:32:00,61.0,-99.9,30.11,East,95,0.0,5.4,-999,0.00,,,-99.99,perl,2013-04-23 18:32:00,
2013-04-23 14:37:00,61.3,-99.9,30.11,SSW,205,4.9,5.4,-999,0.00,,,-99.99,perl,2013-04-23 18:37:00,
2013-04-23 14:42:00,61.5,-99.9,30.11,SE,141,4.9,4.9,-999,0.00,,,-99.99,perl,2013-04-23 18:42:00,
2013-04-23 14:47:00,61.7,-99.9,30.11,East,99,5.1,5.8,-999,0.00,,,-99.99,perl,2013-04-23 18:47:00,
2013-04-23 14:52:00,62.2,-99.9,30.11,South,183,3.5,4.0,-999,0.00,,,-99.99,perl,2013-04-23 18:52:00,
2013-04-23 14:57:00,63.0,-99.9,30.11,SE,141,4.0,5.4,-999,0.00,,,-99.99,perl,2013-04-23 18:57:00,
2013-04-23 15:02:00,61.9,-99.9,30.08,South,171,4.2,6.3,-999,0.00,,,-99.99,perl,2013-04-23 19:02:00,
2013-04-23 15:07:00,61.9,-99.9,30.08,SE,129,3.6,4.9,-999,0.00,,,-99.99,perl,2013-04-23 19:07:00,
2013-04-23 15:12:00,62.8,-99.9,30.08,SSW,194,3.6,5.8,-999,0.00,,,-99.99,perl,2013-04-23 19:12:00,
2013-04-23 15:17:00,62.6,-99.9,30.08,SE,138,0.0,4.0,-999,0.00,,,-99.99,perl,2013-04-23 19:17:00,
2013-04-23 15:22:00,62.8,-99.9,30.08,ESE,122,3.7,3.7,-999,0.00,,,-99.99,perl,2013-04-23 19:22:00,
2013-04-23 15:27:00,63.3,-99.9,30.08,ESE,120,2.3,3.1,-999,0.00,,,-99.99,perl,2013-04-23 19:27:00,
2013-04-23 15:32:00,63.3,-99.9,30.08,SSE,147,4.9,6.3,-999,0.00,,,-99.99,perl,2013-04-23 19:32:00,
2013-04-23 15:37:00,63.5,-99.9,30.08,SSE,164,3.0,5.4,-999,0.00,,,-99.99,perl,2013-04-23 19:37:00,
2013-04-23 15:42:00,63.7,-99.9,30.08,SSE,153,3.1,6.3,-999,0.00,,,-99.99,perl,2013-04-23 19:42:00,
2013-04-23 15:47:00,63.5,-99.9,30.06,ESE,114,4.3,4.9,-999,0.00,,,-99.99,perl,2013-04-23 19:47:00,
2013-04-23 15:53:00,63.1,-99.9,30.06,ESE,112,5.4,8.3,-999,0.00,,,-99.99,perl,2013-04-23 19:53:00,
2013-04-23 15:58:00,63.0,-99.9,30.06,East,84,2.9,3.6,-999,0.00,,,-99.99,perl,2013-04-23 19:58:00,
2013-04-23 16:03:00,63.1,-99.9,30.08,SSE,152,4.0,7.6,-999,0.00,,,-99.99,perl,2013-04-23 20:03:00,
2013-04-23 16:08:00,63.1,-99.9,30.08,SE,140,4.3,4.3,-999,0.00,,,-99.99,perl,2013-04-23 20:08:00,
2013-04-23 16:13:00,63.7,-99.9,30.08,ESE,115,4.5,5.4,-999,0.00,,,-99.99,perl,2013-04-23 20:13:00,
2013-04-23 16:18:00,63.1,-99.9,30.06,SE,135,5.4,8.1,-999,0.00,,,-99.99,perl,2013-04-23 20:18:00,
2013-04-23 16:23:00,63.1,-99.9,30.06,ESE,113,5.4,8.3,-999,0.00,,,-99.99,perl,2013-04-23 20:23:00,
2013-04-23 16:28:00,63.3,-99.9,30.06,ENE,70,4.9,6.7,-999,0.00,,,-99.99,perl,2013-04-23 20:28:00,
2013-04-23 16:34:00,63.5,-99.9,30.06,SSE,160,4.5,5.4,-999,0.00,,,-99.99,perl,2013-04-23 20:34:00,
2013-04-23 16:39:00,63.7,-99.9,30.06,SE,128,3.0,5.8,-999,0.00,,,-99.99,perl,2013-04-23 20:39:00,
2013-04-23 16:44:00,63.9,-99.9,30.06,ESE,111,4.9,6.3,-999,0.00,,,-99.99,perl,2013-04-23 20:44:00,
2013-04-23 16:49:00,63.7,-99.9,30.03,SE,134,0.0,0.0,-999,0.00,,,-99.99,perl,2013-04-23 20:49:00,
2013-04-23 16:54:00,63.7,-99.9,30.03,SSE,156,4.9,8.3,-999,0.00,,,-99.99,perl,2013-04-23 20:54:00,
2013-04-23 16:59:00,63.9,-99.9,30.03,East,100,5.4,5.8,-999,0.00,,,-99.99,perl,2013-04-23 20:59:00,
2013-04-23 17:04:00,63.3,-99.9,30.03,East,100,4.0,6.3,-999,0.00,,,-99.99,perl,2013-04-23 21:04:00,
2013-04-23 17:09:00,63.0,-99.9,30.03,ESE,107,3.6,7.6,-999,0.00,,,-99.99,perl,2013-04-23 21:09:00,
2013-04-23 17:15:00,63.0,-99.9,30.03,East,100,6.6,9.6,-999,0.00,,,-99.99,perl,2013-04-23 21:15:00,
2013-04-23 17:20:00,62.8,-99.9,30.03,East,79,3.6,4.0,-999,0.00,,,-99.99,perl,2013-04-23 21:20:00,
2013-04-23 17:25:00,63.0,-99.9,30.03,ESE,104,4.0,4.0,-999,0.00,,,-99.99,perl,2013-04-23 21:25:00,
2013-04-23 17:30:00,63.0,-99.9,30.03,East,84,4.9,6.3,-999,0.00,,,-99.99,perl,2013-04-23 21:30:00,
2013-04-23 17:35:00,62.6,-99.9,30.03,East,87,4.1,6.3,-999,0.00,,,-99.99,perl,2013-04-23 21:35:00,
2013-04-23 17:40:00,62.6,-99.9,30.03,SSE,158,4.2,6.3,-999,0.00,,,-99.99,perl,2013-04-23 21:40:00,
2013-04-23 17:45:00,62.2,-99.9,30.03,SE,127,4.9,8.3,-999,0.00,,,-99.99,perl,2013-04-23 21:45:00,
2013-04-23 17:50:00,62.2,-99.9,30.03,East,101,3.7,5.4,-999,0.00,,,-99.99,perl,2013-04-23 21:50:00,
2013-04-23 17:55:00,62.6,-99.9,30.03,East,100,4.0,5.4,-999,0.00,,,-99.99,perl,2013-04-23 21:55:00,
2013-04-23 18:00:00,62.4,-99.9,30.03,ESE,108,4.9,4.9,-999,0.00,,,-99.99,perl,2013-04-23 22:00:00,
2013-04-23 18:05:00,62.1,-99.9,30.03,SE,130,6.7,8.3,-999,0.00,,,-99.99,perl,2013-04-23 22:05:00,
2013-04-23 18:10:00,62.1,-99.9,30.03,East,92,5.1,5.1,-999,0.00,,,-99.99,perl,2013-04-23 22:10:00,
2013-04-23 18:15:00,62.2,-99.9,30.03,SE,142,4.1,5.4,-999,0.00,,,-99.99,perl,2013-04-23 22:15:00,
2013-04-23 18:21:00,62.2,-99.9,30.03,East,89,4.6,5.8,-999,0.00,,,-99.99,perl,2013-04-23 22:21:00,
2013-04-23 18:26:00,61.9,-99.9,30.03,ESE,121,6.7,6.7,-999,0.00,,,-99.99,perl,2013-04-23 22:26:00,
2013-04-23 18:31:00,62.1,-99.9,30.03,East,87,4.4,4.4,-999,0.00,,,-99.99,perl,2013-04-23 22:31:00,
2013-04-23 18:36:00,61.9,-99.9,30.03,East,96,2.8,4.9,-999,0.00,,,-99.99,perl,2013-04-23 22:36:00,
2013-04-23 18:41:00,61.7,-99.9,30.03,SE,142,4.9,5.8,-999,0.00,,,-99.99,perl,2013-04-23 22:41:00,
2013-04-23 18:46:00,61.5,-99.9,30.03,East,83,4.4,4.4,-999,0.00,,,-99.99,perl,2013-04-23 22:46:00,
2013-04-23 18:51:00,61.2,-99.9,30.03,ESE,105,4.5,5.4,-999,0.00,,,-99.99,perl,2013-04-23 22:51:00,
2013-04-23 18:56:00,61.0,-99.9,30.03,East,93,4.0,4.0,-999,0.00,,,-99.99,perl,2013-04-23 22:56:00,
2013-04-23 19:01:00,60.8,-99.9,30.00,East,97,4.5,5.4,-999,0.00,,,-99.99,perl,2013-04-23 23:01:00,
2013-04-23 19:06:00,60.6,-99.9,30.00,East,89,3.7,4.0,-999,0.00,,,-99.99,perl,2013-04-23 23:06:00,
2013-04-23 19:11:00,60.6,-99.9,30.00,East,81,4.9,6.3,-999,0.00,,,-99.99,perl,2013-04-23 23:11:00,
2013-04-23 19:16:00,60.4,-99.9,30.00,East,93,4.5,4.9,-999,0.00,,,-99.99,perl,2013-04-23 23:16:00,
2013-04-23 19:21:00,60.3,-99.9,30.00,ESE,111,4.5,5.4,-999,0.00,,,-99.99,perl,2013-04-23 23:21:00,
2013-04-23 19:27:00,60.1,-99.9,30.00,East,98,3.4,3.4,-999,0.00,,,-99.99,perl,2013-04-23 23:27:00,
2013-04-23 19:32:00,59.7,-99.9,30.00,ESE,104,3.7,5.4,-999,0.00,,,-99.99,perl,2013-04-23 23:32:00,
2013-04-23 19:37:00,59.5,-99.9,30.00,ESE,106,5.4,5.4,-999,0.00,,,-99.99,perl,2013-04-23 23:37:00,
2013-04-23 19:43:00,59.4,-99.9,30.00,ESE,122,4.0,8.1,-999,0.00,,,-99.99,perl,2013-04-23 23:43:00,
2013-04-23 19:48:00,59.2,-99.9,30.00,SE,124,4.9,4.9,-999,0.00,,,-99.99,perl,2013-04-23 23:48:00,
2013-04-23 19:54:00,58.8,-99.9,30.00,ESE,123,4.0,4.0,-999,0.00,,,-99.99,perl,2013-04-23 23:54:00,
2013-04-23 19:59:00,58.8,-99.9,30.00,East,95,4.0,6.3,-999,0.00,,,-99.99,perl,2013-04-23 23:59:00,
2013-04-23 20:04:00,58.6,-99.9,30.00,ESE,121,4.0,8.1,-999,0.00,,,-99.99,perl,2013-04-24 00:04:00,
2013-04-23 20:09:00,58.5,-99.9,30.00,ESE,105,3.9,6.3,-999,0.00,,,-99.99,perl,2013-04-24 00:09:00,
2013-04-23 20:14:00,58.3,-99.9,30.00,ESE,114,4.6,5.8,-999,0.00,,,-99.99,perl,2013-04-24 00:14:00,
2013-04-23 20:19:00,58.1,-99.9,30.00,SE,125,4.9,5.8,-999,0.00,,,-99.99,perl,2013-04-24 00:19:00,
2013-04-23 20:24:00,57.7,-99.9,30.00,ESE,106,4.5,5.8,-999,0.00,,,-99.99,perl,2013-04-24 00:24:00,
2013-04-23 20:29:00,57.7,-99.9,29.97,ESE,106,4.5,8.3,-999,0.00,,,-99.99,perl,2013-04-24 00:29:00,
2013-04-23 20:34:00,57.7,-99.9,29.97,ESE,112,4.8,5.8,-999,0.00,,,-99.99,perl,2013-04-24 00:34:00,
2013-04-23 20:39:00,57.6,-99.9,29.97,ESE,110,5.4,5.8,-999,0.00,,,-99.99,perl,2013-04-24 00:39:00,
2013-04-23 20:44:00,57.6,-99.9,29.97,ESE,121,5.9,13.2,-999,0.00,,,-99.99,perl,2013-04-24 00:44:00,
2013-04-23 20:49:00,57.4,-99.9,29.97,ESE,104,3.8,5.8,-999,0.00,,,-99.99,perl,2013-04-24 00:49:00,
2013-04-23 20:54:00,57.4,-99.9,29.97,SE,133,2.7,9.2,-999,0.00,,,-99.99,perl,2013-04-24 00:54:00,
2013-04-23 20:59:00,57.4,-99.9,29.97,SE,136,4.1,5.8,-999,0.00,,,-99.99,perl,2013-04-24 00:59:00,
2013-04-23 21:04:00,57.2,-99.9,29.97,SSE,157,3.1,3.1,-999,0.00,,,-99.99,perl,2013-04-24 01:04:00,
2013-04-23 21:09:00,57.2,-99.9,29.97,ESE,102,4.4,5.4,-999,0.00,,,-99.99,perl,2013-04-24 01:09:00,
2013-04-23 21:14:00,57.2,-99.9,29.97,ESE,115,4.9,4.9,-999,0.00,,,-99.99,perl,2013-04-24 01:14:00,
2013-04-23 21:19:00,57.0,-99.9,29.97,ESE,119,0.0,0.0,-999,0.00,,,-99.99,perl,2013-04-24 01:19:00,
2013-04-23 21:24:00,56.7,-99.9,29.97,SE,127,0.0,4.0,-999,0.00,,,-99.99,perl,2013-04-24 01:24:00,
2013-04-23 21:29:00,56.7,-99.9,29.97,SE,145,0.0,0.0,-999,0.00,,,-99.99,perl,2013-04-24 01:29:00,
2013-04-23 21:34:00,56.3,-99.9,29.97,ESE,108,0.0,0.0,-999,0.00,,,-99.99,perl,2013-04-24 01:34:00,
2013-04-23 21:39:00,56.3,-99.9,29.97,ESE,120,0.0,0.0,-999,0.00,,,-99.99,perl,2013-04-24 01:39:00,
2013-04-23 21:44:00,55.9,-99.9,29.97,ESE,121,0.8,0.0,-999,0.00,,,-99.99,perl,2013-04-24 01:44:00,
2013-04-23 21:49:00,55.8,-99.9,29.97,ESE,123,0.0,0.0,-999,0.00,,,-99.99,perl,2013-04-24 01:49:00,
2013-04-23 21:55:00,55.6,-99.9,29.97,SSE,155,0.5,0.0,-999,0.00,,,-99.99,perl,2013-04-24 01:55:00,
2013-04-23 22:00:00,55.4,-99.9,29.97,SE,138,0.0,0.0,-999,0.00,,,-99.99,perl,2013-04-24 02:00:00,
2013-04-23 22:05:00,55.2,-99.9,29.97,SE,132,0.0,3.1,-999,0.00,,,-99.99,perl,2013-04-24 02:05:00,
2013-04-23 22:10:00,54.9,-99.9,29.97,SE,129,0.0,0.0,-999,0.00,,,-99.99,perl,2013-04-24 02:10:00,
2013-04-23 22:15:00,54.5,-99.9,29.97,SE,134,0.0,0.0,-999,0.00,,,-99.99,perl,2013-04-24 02:15:00,
2013-04-23 22:20:00,54.5,-99.9,29.97,SSE,151,0.0,0.0,-999,0.00,,,-99.99,perl,2013-04-24 02:20:00,
2013-04-23 22:25:00,54.5,-99.9,29.97,SE,144,0.0,0.0,-999,0.00,,,-99.99,perl,2013-04-24 02:25:00,
2013-04-23 22:30:00,54.5,-99.9,29.97,SE,140,0.0,5.4,-999,0.00,,,-99.99,perl,2013-04-24 02:30:00,
2013-04-23 22:35:00,54.5,-99.9,29.97,SSE,147,0.0,0.0,-999,0.00,,,-99.99,perl,2013-04-24 02:35:00,
2013-04-23 22:41:00,55.0,-99.9,29.97,SSE,161,0.0,0.0,-999,0.00,,,-99.99,perl,2013-04-24 02:41:00,
2013-04-23 22:46:00,55.0,-99.9,29.94,SSE,165,0.0,0.0,-999,0.00,,,-99.99,perl,2013-04-24 02:46:00,
2013-04-23 22:52:00,55.0,-99.9,29.94,SSE,147,3.1,3.6,-999,0.00,,,-99.99,perl,2013-04-24 02:52:00,
2013-04-23 22:58:00,55.0,-99.9,29.94,SSE,147,0.0,0.0,-999,0.00,,,-99.99,perl,2013-04-24 02:58:00,
2013-04-23 23:04:00,54.9,-99.9,29.94,SSE,148,0.0,0.0,-999,0.00,,,-99.99,perl,2013-04-24 03:04:00,
2013-04-23 23:09:00,54.9,-99.9,29.94,SSE,162,2.1,4.0,-999,0.00,,,-99.99,perl,2013-04-24 03:09:00,
2013-04-23 23:14:00,55.0,-99.9,29.94,SSE,162,2.7,4.0,-999,0.00,,,-99.99,perl,2013-04-24 03:14:00,
2013-04-23 23:19:00,55.0,-99.9,29.94,SSE,159,2.8,3.6,-999,0.00,,,-99.99,perl,2013-04-24 03:19:00,
2013-04-23 23:24:00,54.7,-99.9,29.94,SSE,159,0.0,0.0,-999,0.00,,,-99.99,perl,2013-04-24 03:24:00,
2013-04-23 23:32:00,54.7,-99.9,29.94,SSE,155,2.8,4.9,-999,0.00,,,-99.99,perl,2013-04-24 03:32:00,
2013-04-23 23:37:00,55.2,-99.9,29.94,SSE,156,4.7,8.7,-999,0.00,,,-99.99,perl,2013-04-24 03:37:00,
2013-04-23 23:42:00,55.2,-99.9,29.94,SSE,154,4.9,7.6,-999,0.00,,,-99.99,perl,2013-04-24 03:42:00,
2013-04-23 23:47:00,55.0,-99.9,29.94,SSE,157,3.9,5.4,-999,0.00,,,-99.99,perl,2013-04-24 03:47:00,
2013-04-23 23:52:00,54.7,-99.9,29.94,SSE,156,3.1,4.9,-999,0.00,,,-99.99,perl,2013-04-24 03:52:00,
2013-04-23 23:57:00,54.9,-99.9,29.94,SSE,160,4.5,5.4,-999,0.00,,,-99.99,perl,2013-04-24 03:57:00,